Location: Newark
(41.0400°S, 62.7845°W)
Time: 00:44:45
(UTC+00:00)

Envisat - Pass Details

Date: 29 October 2021
Orbit: 764 x 766 km, 98.2° (Epoch: 28 November)

Event Time Altitude Azimuth Distance (km) Brightness Sun altitude
Rises 08:15:56 0° 18° (NNE) 3,222 6.1 -8.8°
Reaches altitude 10° 08:18:13 10° 19° (NNE) 2,304 5.4 -8.4°
Maximum altitude 08:23:18 79° 105° (ESE) 792 3.2 -7.5°
Drops below altitude 10° 08:28:27 10° 190° (S) 2,336 5.7 -6.7°
Sets 08:30:47 0° 191° (S) 3,270 6.4 -6.3°
